Greenville, ME

10:36 PM EST on November 11, 2019 (GMT -0500)
Greenville

Weather History for KGNR - October, 2019

Change the Weather History Date:

Monday, October 21, 2019

  Actual Average (WUND) Record (WUND)
Temperature  
Mean Temperature 48 °F -  
Max Temperature 59 °F - - (-1)
Min Temperature 37 °F - - (-1)
Degree Days  
Heating Degree Days 17    
Moisture  
Dew Point 38 °F    
Average Humidity 70    
Maximum Humidity 89    
Minimum Humidity 48    
Precipitation  
Precipitation 0.00 in - - ()
Sea Level Pressure  
Sea Level Pressure 30.13 in    
Wind  
Wind Speed 3 mph ()    
Max Wind Speed 9 mph    
Max Gust Speed -    
Averages and records for this station are not official NWS values.
T = Trace of Precipitation, MM = Missing Value Source: Averaged Metar Reports

Daily Weather History Graph

Daily Weather History Graph

Search for Another Location

Airport or City:

Astronomy

Oct. 21, 2019 Rise Set
Actual Time 7:02 AM EDT 5:42 PM EDT
Civil Twilight 6:32 AM EDT 6:13 PM EDT
Nautical Twilight 5:57 AM EDT 6:47 PM EDT
Astronomical Twilight 5:23 AM EDT 7:21 PM EDT
Moon 11:44 PM EDT (10/21) 2:28 PM EDT (10/21)
Length of Visible Light 11h 40m
Length of Day
10h 40m
Waning Gibbous, 48% of the Moon is Illuminated
Oct 21
Waning Gibbous
Oct 27
New
Nov 4
First Quarter
Nov 12
Full
Nov 19
Last Quarter

Hourly Weather History & Observations

Time (EDT) Temp. Windchill Dew Point Humidity Pressure Visibility Wind Dir Wind Speed Gust Speed Precip Events Conditions
12:56 AM 43.0 °F 40.3 °F 37.9 °F 82% 30.05 in - East 4.6 mph - N/A   Unknown
1:56 AM 43.0 °F 41.3 °F 37.9 °F 82% 30.06 in - ESE 3.5 mph - N/A   Unknown
2:56 AM 43.0 °F - 37.0 °F 80% 30.07 in - Calm Calm - N/A   Unknown
3:56 AM 41.0 °F - 37.0 °F 86% 30.07 in - Calm Calm - N/A   Unknown
4:56 AM 39.0 °F - 35.1 °F 86% 30.08 in - Calm Calm - N/A   Unknown
5:56 AM 39.0 °F - 36.0 °F 89% 30.10 in - Calm Calm - N/A   Unknown
6:56 AM 37.9 °F - 35.1 °F 89% 30.11 in - Calm Calm - N/A   Unknown
7:56 AM 41.0 °F - 37.9 °F 89% 30.13 in - Calm Calm - N/A   Unknown
8:56 AM 48.0 °F - 39.0 °F 71% 30.14 in - NNW 4.6 mph - N/A   Unknown
9:56 AM 51.1 °F - 41.0 °F 68% 30.12 in - NNW 5.8 mph - N/A   Unknown
10:56 AM 52.0 °F - 41.0 °F 66% 30.13 in - Variable 4.6 mph - N/A   Unknown
11:56 AM 54.0 °F - 41.0 °F 62% 30.13 in - NNW 8.1 mph - N/A   Unknown
12:56 PM 55.9 °F - 39.9 °F 55% 30.11 in - North 9.2 mph - N/A   Unknown
1:56 PM 57.0 °F - 41.0 °F 55% 30.11 in - NW 9.2 mph - N/A   Unknown
2:56 PM 59.0 °F - 41.0 °F 51% 30.11 in - North 8.1 mph - N/A   Unknown
3:56 PM 59.0 °F - 39.0 °F 48% 30.13 in - North 5.8 mph - N/A   Unknown
4:56 PM 55.9 °F - 39.9 °F 55% 30.15 in - North 6.9 mph - N/A   Unknown
5:56 PM 53.1 °F - 39.0 °F 59% 30.16 in - NNW 4.6 mph - N/A   Unknown
6:56 PM 51.1 °F - 39.0 °F 63% 30.19 in - East 4.6 mph - N/A   Unknown
7:56 PM 46.9 °F - 39.0 °F 74% 30.21 in - North 3.5 mph - N/A   Unknown
8:56 PM 46.9 °F - 37.9 °F 71% 30.21 in - NNE 3.5 mph - N/A   Unknown
9:56 PM 46.0 °F 43.1 °F 37.0 °F 71% 30.20 in - NNE 5.8 mph - N/A   Unknown
10:56 PM 46.9 °F - 35.1 °F 63% 30.20 in - Calm Calm - N/A   Unknown
11:56 PM 44.1 °F - 35.1 °F 71% 30.20 in - Calm Calm - N/A   Unknown